Weather History for Glasgow, MT

Change the Weather History Date:

Friday, March 8, 2013

  Actual Average Record
Temperature  
Mean Temperature 18 °F 28 °F  
Max Temperature 25 °F 38 °F 63 °F (1990)
Min Temperature 11 °F 17 °F -29 °F (1897)
Degree Days  
Heating Degree Days 47 37  
Month to date heating degree days 325 312  
Since 1 July heating degree days 6532 6682  
Cooling Degree Days 0 0  
Month to date cooling degree days 0 0  
Year to date cooling degree days 0 0  
Moisture  
Dew Point 15 °F    
Average Humidity 78    
Maximum Humidity 88    
Minimum Humidity 68    
Precipitation  
Precipitation 0.00 in 0.02 in 0.25 in (1904)
Month to date precipitation 0.28 0.09  
Year to date precipitation 0.94 0.72  
Snow  
Snow 0.00 in 0.20 in 1.20 in (1921)
Month to date snowfall 4.4 1.4  
Since 1 July snowfall 41.7 28.4  
Snow Depth 3.00 in    
Sea Level Pressure  
Sea Level Pressure 30.12 in    
Wind  
Wind Speed 9 mph (East)    
Max Wind Speed 18 mph    
Max Gust Speed 21 mph    
Visibility 9 miles    
Events      
T = Trace of Precipitation, MM = Missing Value Source: NWS Daily Summary

Daily Weather History Graph

Daily Weather History Graph

Search for Another Location

Airport:

Trip Planner

Search our weather history database for the weather conditions in past years. The results will help you decide how hot, cold, wet, or windy it might be!

Date:

Astronomy

Mar. 08, 2013 Rise Set
Actual Time 6:33 AM MST 6:01 PM MST
Civil Twilight 6:02 AM MST 6:32 PM MST
Nautical Twilight 5:26 AM MST 7:09 PM MST
Astronomical Twilight 4:49 AM MST 7:45 PM MST
Moon 4:32 AM MST (3/8) 2:49 PM MST (3/8)
Length of Visible Light 12h 30m
Length of Day
11h 28m
Waning Crescent, 11% of the Moon is Illuminated
Mar 8
Waning Crescent
Mar 11
New
Mar 19
First Quarter
Mar 27
Full
Apr 2
Last Quarter

Hourly Weather History & Observations

Time (MST) Temp. Windchill Dew Point Humidity Pressure Visibility Wind Dir Wind Speed Gust Speed Precip Events Conditions
12:53 AM 12.0 °F 2.7 °F 9.0 °F 88% 30.25 in 8.0 mi North 5.8 mph - N/A   Clear
1:53 AM 12.9 °F 3.8 °F 8.1 °F 81% 30.24 in 8.0 mi NE 5.8 mph - N/A   Clear
2:53 AM 12.9 °F 5.2 °F 8.1 °F 81% 30.22 in 10.0 mi NNE 4.6 mph - N/A   Clear
3:53 AM 12.0 °F 4.1 °F 7.0 °F 80% 30.23 in 10.0 mi North 4.6 mph - N/A   Clear
4:53 AM 10.9 °F - 7.0 °F 84% 30.24 in 10.0 mi Calm Calm - N/A   Clear
5:53 AM 10.9 °F 1.4 °F 7.0 °F 84% 30.24 in 10.0 mi ENE 5.8 mph - N/A   Clear
6:53 AM 12.0 °F 2.7 °F 7.0 °F 80% 30.25 in 10.0 mi East 5.8 mph - N/A   Clear
7:53 AM 15.1 °F 3.3 °F 9.0 °F 77% 30.24 in 10.0 mi East 9.2 mph - N/A   Clear
8:53 AM 17.1 °F 4.3 °F 10.0 °F 74% 30.22 in 10.0 mi East 11.5 mph - N/A   Clear
9:53 AM 19.0 °F 6.8 °F 12.0 °F 74% 30.21 in 10.0 mi ESE 11.5 mph - N/A   Clear
10:53 AM 21.9 °F 11.0 °F 14.0 °F 72% 30.19 in 10.0 mi ESE 10.4 mph - N/A   Scattered Clouds
11:53 AM 24.1 °F 13.1 °F 16.0 °F 71% 30.18 in 10.0 mi East 11.5 mph - N/A   Overcast
12:53 PM 24.1 °F 12.5 °F 16.0 °F 71% 30.15 in 10.0 mi East 12.7 mph - N/A   Mostly Cloudy
1:53 PM 25.0 °F 12.2 °F 17.1 °F 72% 30.12 in 10.0 mi ESE 16.1 mph - N/A   Overcast
2:53 PM 25.0 °F 12.6 °F 18.0 °F 75% 30.10 in 10.0 mi ESE 15.0 mph - N/A   Overcast
3:53 PM 25.0 °F 14.8 °F 18.0 °F 75% 30.09 in 10.0 mi East 10.4 mph - N/A   Overcast
4:53 PM 24.1 °F 11.0 °F 19.0 °F 81% 30.08 in 10.0 mi ESE 16.1 mph - N/A   Overcast
5:23 PM 24.8 °F 15.3 °F 19.4 °F 80% 29.96 in 9.0 mi ESE 9.2 mph - N/A   Overcast
5:30 PM 24.8 °F 15.3 °F 19.4 °F 80% 29.95 in 9.0 mi ESE 9.2 mph - N/A   Overcast
5:53 PM 24.1 °F 12.0 °F 19.0 °F 81% 30.08 in 9.0 mi ESE 13.8 mph - N/A   Overcast
6:09 PM 24.8 °F 14.6 °F 19.4 °F 80% 29.95 in 9.0 mi ESE 10.4 mph - N/A   Overcast
6:37 PM 24.8 °F 15.3 °F 19.4 °F 80% 29.95 in 7.0 mi ESE 9.2 mph - N/A   Overcast
6:53 PM 24.1 °F 14.4 °F 19.9 °F 84% 30.07 in 9.0 mi ESE 9.2 mph - N/A   Overcast
7:13 PM 24.8 °F 16.1 °F 19.4 °F 80% 29.95 in 9.0 mi ESE 8.1 mph - N/A   Overcast
7:46 PM 24.8 °F 19.1 °F 19.4 °F 80% 29.96 in 8.0 mi SE 4.6 mph - N/A   Overcast
7:53 PM 24.1 °F 16.0 °F 19.9 °F 84% 30.08 in 8.0 mi SE 6.9 mph - N/A   Overcast
8:53 PM 24.1 °F 14.4 °F 19.9 °F 84% 30.08 in 7.0 mi ESE 9.2 mph - N/A   Overcast
9:53 PM 24.1 °F 14.4 °F 19.9 °F 84% 30.06 in 7.0 mi East 9.2 mph - N/A   Overcast
10:53 PM 24.1 °F 16.0 °F 21.0 °F 88% 30.04 in 7.0 mi East 6.9 mph - N/A   Overcast
11:53 PM 24.1 °F 19.7 °F 21.0 °F 88% 30.03 in 5.0 mi SE 3.5 mph - N/A   Overcast